QPF
0.13 0.13 0.11 0.11 0.07 0.08 0.11 0.09 0.07 0.07 0.07 0.05 0.04 0.04 0.02 0.03 0.03 0.04 0.06 0.05 0.04 0.04 0.04 0.04 0.05 0.05 0.05 0.05 0.06 0.07 0.07 0.06 0.05 0.06 0.06 0.05 0.04 0.04 0.05 0.05 0.05 0.06 0.05
0.11 0.11 0.10 0.11 0.10 0.11 0.15 0.14 0.10 0.11 0.13 0.15 0.08 0.03 0.02 0.03 0.03 0.03 0.04 0.06 0.06 0.04 0.04 0.04 0.05 0.05 0.05 0.05 0.05 0.05 0.05 0.05 0.05 0.06 0.07 0.06 0.05 0.04 0.03 0.03 0.04 0.05 0.05
0.11 0.12 0.11 0.11 0.13 0.16 0.16 0.17 0.17 0.15 0.13 0.15 0.11 0.07 0.06 0.05 0.04 0.04 0.03 0.06 0.09 0.09 0.06 0.04 0.04 0.05 0.05 0.06 0.07 0.07 0.06 0.05 0.05 0.05 0.05 0.05 0.05 0.05 0.04 0.03 0.03 0.04 0.04
0.13 0.12 0.11 0.12 0.13 0.14 0.17 0.16 0.16 0.14 0.13 0.12 0.10 0.08 0.08 0.07 0.05 0.04 0.04 0.04 0.05 0.07 0.08 0.05 0.04 0.03 0.04 0.05 0.07 0.07 0.07 0.06 0.05 0.06 0.07 0.07 0.06 0.05 0.04 0.03 0.03 0.03 0.03
0.12 0.13 0.13 0.15 0.16 0.15 0.16 0.14 0.17 0.16 0.13 0.11 0.09 0.09 0.09 0.09 0.07 0.04 0.04 0.04 0.06 0.06 0.06 0.05 0.03 0.03 0.04 0.04 0.05 0.06 0.09 0.09 0.07 0.07 0.08 0.09 0.09 0.07 0.05 0.04 0.03 0.03 0.04
0.10 0.12 0.12 0.12 0.14 0.15 0.15 0.14 0.17 0.18 0.17 0.15 0.10 0.10 0.10 0.08 0.06 0.06 0.05 0.05 0.08 0.09 0.06 0.04 0.06 0.04 0.05 0.05 0.04 0.04 0.06 0.08 0.07 0.06 0.06 0.06 0.07 0.07 0.06 0.05 0.04 0.03 0.03
0.09 0.10 0.11 0.12 0.14 0.17 0.16 0.15 0.15 0.14 0.13 0.15 0.14 0.12 0.11 0.08 0.07 0.05 0.05 0.05 0.06 0.08 0.08 0.06 0.05 0.06 0.05 0.04 0.03 0.03 0.04 0.06 0.07 0.06 0.06 0.05 0.05 0.05 0.06 0.05 0.05 0.05 0.04
0.09 0.09 0.11 0.11 0.11 0.12 0.14 0.14 0.15 0.13 0.11 0.12 0.13 0.14 0.12 0.09 0.06 0.04 0.04 0.04 0.05 0.05 0.05 0.04 0.04 0.04 0.03 0.04 0.03 0.03 0.03 0.04 0.05 0.06 0.06 0.04 0.03 0.04 0.04 0.05 0.05 0.05 0.05
0.08 0.08 0.09 0.09 0.09 0.11 0.12 0.12 0.14 0.15 0.13 0.13 0.12 0.12 0.11 0.09 0.08 0.06 0.05 0.03 0.05 0.05 0.04 0.04 0.03 0.03 0.04 0.04 0.05 0.04 0.03 0.02 0.03 0.04 0.05 0.05 0.04 0.04 0.04 0.05 0.05 0.06 0.05
0.08 0.07 0.07 0.09 0.10 0.12 0.13 0.13 0.15 0.16 0.15 0.12 0.12 0.12 0.10 0.10 0.10 0.08 0.06 0.04 0.04 0.03 0.03 0.02 0.03 0.04 0.04 0.05 0.07 0.05 0.03 0.02 0.02 0.03 0.04 0.05 0.06 0.06 0.05 0.05 0.06 0.06 0.05
0.07 0.06 0.06 0.07 0.09 0.09 0.09 0.10 0.12 0.13 0.12 0.11 0.09 0.09 0.10 0.10 0.10 0.08 0.07 0.05 0.04 0.03 0.03 0.03 0.04 0.05 0.06 0.07 0.08 0.06 0.03 0.02 0.02 0.02 0.03 0.04 0.05 0.05 0.05 0.05 0.05 0.05 0.06
0.07 0.06 0.08 0.09 0.09 0.10 0.11 0.11 0.11 0.12 0.12 0.11 0.09 0.08 0.08 0.09 0.08 0.08 0.07 0.07 0.06 0.05 0.04 0.03 0.04 0.04 0.05 0.07 0.08 0.05 0.02 0.01 0.01 0.02 0.02 0.03 0.04 0.04 0.04 0.05 0.06 0.06 0.06
0.07 0.08 0.10 0.11 0.11 0.11 0.14 0.17 0.17 0.16 0.13 0.12 0.11 0.11 0.10 0.09 0.07 0.07 0.07 0.06 0.06 0.06 0.05 0.05 0.05 0.05 0.04 0.05 0.06 0.04 0.02 0.01 0.01 0.02 0.03 0.02 0.02 0.03 0.04 0.04 0.05 0.05 0.05
0.07 0.09 0.09 0.09 0.11 0.12 0.14 0.18 0.21 0.23 0.19 0.15 0.13 0.11 0.10 0.09 0.06 0.05 0.05 0.05 0.05 0.06 0.06 0.06 0.05 0.05 0.06 0.05 0.05 0.04 0.02 0.01 0.01 0.01 0.02 0.02 0.01 0.01 0.02 0.03 0.04 0.05 0.05
0.07 0.08 0.10 0.11 0.11 0.13 0.16 0.20 0.21 0.19 0.16 0.14 0.13 0.12 0.10 0.08 0.06 0.06 0.05 0.06 0.06 0.06 0.06 0.07 0.06 0.06 0.09 0.09 0.07 0.03 0.05 0.03 0.02 0.01 0.02 0.02 0.01 0.01 0.01 0.02 0.02 0.03 0.04
0.10 0.10 0.11 0.14 0.17 0.16 0.15 0.16 0.17 0.16 0.14 0.12 0.12 0.12 0.10 0.08 0.08 0.07 0.07 0.07 0.07 0.08 0.08 0.08 0.08 0.06 0.06 0.06 0.04 0.04 0.06 0.05 0.03 0.02 0.02 0.02 0.02 0.01 0.02 0.02 0.03 0.03 0.03
0.16 0.14 0.12 0.12 0.15 0.15 0.14 0.13 0.14 0.12 0.11 0.11 0.11 0.11 0.10 0.08 0.07 0.07 0.07 0.07 0.07 0.08 0.09 0.08 0.09 0.08 0.08 0.06 0.06 0.06 0.06 0.06 0.03 0.02 0.02 0.02 0.03 0.03 0.03 0.03 0.04 0.03 0.03
0.09 0.07 0.06 0.06 0.07 0.08 0.10 0.10 0.10 0.11 0.11 0.10 0.10 0.09 0.08 0.07 0.06 0.07 0.08 0.08 0.08 0.08 0.09 0.09 0.09 0.10 0.10 0.09 0.07 0.07 0.06 0.05 0.04 0.03 0.02 0.02 0.02 0.03 0.04 0.04 0.04 0.05 0.05
0.07 0.08 0.07 0.07 0.07 0.07 0.09 0.10 0.09 0.09 0.10 0.09 0.08 0.08 0.07 0.07 0.07 0.08 0.09 0.10 0.11 0.10 0.10 0.10 0.09 0.10 0.11 0.11 0.11 0.08 0.06 0.06 0.04 0.03 0.03 0.03 0.03 0.02 0.03 0.04 0.05 0.06 0.06
0.05 0.09 0.11 0.13 0.12 0.13 0.16 0.16 0.13 0.13 0.12 0.10 0.08 0.08 0.07 0.06 0.05 0.05 0.06 0.08 0.09 0.10 0.10 0.10 0.09 0.09 0.11 0.12 0.12 0.10 0.08 0.08 0.06 0.04 0.03 0.03 0.04 0.06 0.05 0.04 0.05 0.04 0.04
0.04 0.07 0.08 0.09 0.11 0.11 0.12 0.12 0.12 0.11 0.11 0.09 0.08 0.07 0.05 0.04 0.03 0.03 0.03 0.03 0.05 0.07 0.07 0.08 0.09 0.08 0.09 0.10 0.10 0.09 0.08 0.07 0.06 0.05 0.04 0.03 0.03 0.03 0.05 0.05 0.06 0.04 0.03
0.06 0.06 0.09 0.09 0.10 0.07 0.05 0.05 0.05 0.05 0.06 0.05 0.05 0.04 0.03 0.03 0.03 0.02 0.02 0.02 0.02 0.03 0.05 0.06 0.08 0.08 0.08 0.08 0.08 0.08 0.08 0.07 0.05 0.06 0.05 0.04 0.04 0.04 0.04 0.06 0.08 0.07 0.05
0.06 0.05 0.06 0.06 0.06 0.07 0.06 0.06 0.05 0.05 0.06 0.06 0.05 0.04 0.03 0.02 0.02 0.02 0.02 0.03 0.02 0.02 0.03 0.04 0.06 0.06 0.07 0.06 0.07 0.07 0.07 0.06 0.05 0.05 0.06 0.05 0.04 0.04 0.04 0.05 0.07 0.07 0.06
0.06 0.05 0.04 0.04 0.05 0.06 0.08 0.08 0.07 0.05 0.05 0.06 0.06 0.05 0.04 0.03 0.03 0.03 0.04 0.05 0.04 0.05 0.05 0.04 0.05 0.06 0.05 0.06 0.06 0.06 0.05 0.05 0.05 0.05 0.05 0.05 0.05 0.05 0.05 0.07 0.06 0.06 0.05
0.07 0.07 0.05 0.05 0.04 0.05 0.05 0.05 0.04 0.04 0.04 0.05 0.03 0.02 0.02 0.02 0.03 0.03 0.04 0.05 0.05 0.05 0.03 0.02 0.02 0.03 0.03 0.03 0.03 0.03 0.03 0.04 0.05 0.04 0.04 0.05 0.04 0.04 0.05 0.07 0.07 0.05 0.05
0.08 0.06 0.06 0.05 0.05 0.04 0.04 0.03 0.02 0.03 0.04 0.04 0.03 0.02 0.02 0.02 0.02 0.03 0.04 0.05 0.05 0.04 0.03 0.03 0.02 0.02 0.02 0.02 0.01 0.02 0.02 0.03 0.04 0.04 0.04 0.05 0.04 0.04 0.04 0.05 0.06 0.06 0.05
MSLP
1007.62 1007.91 1008.20 1008.51 1008.85 1009.22 1009.60 1009.96 1010.27 1010.48 1010.60 1010.62 1010.56 1010.46 1010.37 1010.32 1010.35 1010.45 1010.63 1010.88 1011.16 1011.46 1011.78 1012.10 1012.44 1012.79 1013.16 1013.53 1013.90 1014.25 1014.57 1014.85 1015.10 1015.32 1015.55 1015.79 1016.07 1016.37 1016.72 1017.07 1017.41 1017.72 1017.99
1006.95 1007.28 1007.61 1007.95 1008.32 1008.71 1009.10 1009.46 1009.78 1010.01 1010.15 1010.21 1010.20 1010.16 1010.10 1010.08 1010.09 1010.17 1010.30 1010.48 1010.70 1010.96 1011.24 1011.54 1011.87 1012.22 1012.59 1012.96 1013.32 1013.66 1013.96 1014.22 1014.45 1014.67 1014.90 1015.15 1015.44 1015.77 1016.13 1016.50 1016.86 1017.18 1017.47
1006.31 1006.70 1007.08 1007.46 1007.86 1008.26 1008.66 1009.03 1009.36 1009.62 1009.81 1009.93 1009.98 1009.99 1009.98 1009.96 1009.96 1009.98 1010.04 1010.13 1010.27 1010.44 1010.67 1010.94 1011.25 1011.60 1011.97 1012.35 1012.70 1013.03 1013.32 1013.57 1013.79 1014.01 1014.24 1014.51 1014.82 1015.17 1015.55 1015.93 1016.31 1016.65 1016.96
1005.71 1006.15 1006.58 1007.01 1007.43 1007.84 1008.24 1008.62 1008.97 1009.27 1009.52 1009.71 1009.84 1009.92 1009.95 1009.95 1009.92 1009.88 1009.85 1009.84 1009.87 1009.96 1010.11 1010.34 1010.63 1010.97 1011.34 1011.72 1012.07 1012.38 1012.66 1012.90 1013.11 1013.33 1013.58 1013.86 1014.20 1014.57 1014.97 1015.37 1015.76 1016.12 1016.45
1005.13 1005.63 1006.10 1006.56 1006.99 1007.41 1007.81 1008.19 1008.56 1008.90 1009.22 1009.49 1009.72 1009.88 1009.97 1009.99 1009.94 1009.84 1009.73 1009.62 1009.55 1009.54 1009.62 1009.80 1010.06 1010.39 1010.75 1011.11 1011.45 1011.75 1012.00 1012.22 1012.42 1012.64 1012.90 1013.20 1013.56 1013.96 1014.38 1014.81 1015.22 1015.59 1015.93
1004.59 1005.12 1005.63 1006.10 1006.54 1006.94 1007.33 1007.71 1008.09 1008.48 1008.87 1009.24 1009.56 1009.81 1009.97 1010.03 1009.98 1009.85 1009.67 1009.47 1009.32 1009.23 1009.25 1009.38 1009.60 1009.90 1010.24 1010.58 1010.89 1011.15 1011.37 1011.55 1011.73 1011.94 1012.19 1012.51 1012.88 1013.31 1013.75 1014.20 1014.63 1015.03 1015.39
1004.10 1004.66 1005.18 1005.65 1006.06 1006.44 1006.81 1007.17 1007.57 1008.00 1008.45 1008.91 1009.34 1009.69 1009.93 1010.04 1010.02 1009.88 1009.66 1009.42 1009.20 1009.06 1009.03 1009.12 1009.31 1009.57 1009.87 1010.17 1010.42 1010.63 1010.79 1010.92 1011.06 1011.23 1011.46 1011.78 1012.16 1012.59 1013.06 1013.53 1013.98 1014.41 1014.80
1003.69 1004.25 1004.77 1005.22 1005.61 1005.95 1006.27 1006.62 1007.02 1007.47 1007.98 1008.52 1009.03 1009.48 1009.81 1009.99 1010.02 1009.90 1009.68 1009.43 1009.19 1009.03 1008.97 1009.03 1009.19 1009.42 1009.67 1009.90 1010.09 1010.21 1010.29 1010.34 1010.41 1010.52 1010.72 1011.00 1011.38 1011.82 1012.30 1012.78 1013.26 1013.70 1014.13
1003.38 1003.94 1004.43 1004.86 1005.21 1005.51 1005.79 1006.11 1006.49 1006.95 1007.49 1008.08 1008.67 1009.20 1009.61 1009.87 1009.96 1009.89 1009.71 1009.48 1009.26 1009.10 1009.04 1009.09 1009.23 1009.42 1009.62 1009.78 1009.88 1009.91 1009.88 1009.83 1009.81 1009.85 1009.98 1010.22 1010.56 1010.98 1011.46 1011.96 1012.45 1012.92 1013.38
1003.16 1003.71 1004.19 1004.59 1004.90 1005.16 1005.41 1005.68 1006.04 1006.49 1007.04 1007.66 1008.28 1008.86 1009.34 1009.66 1009.81 1009.81 1009.69 1009.51 1009.34 1009.22 1009.19 1009.24 1009.37 1009.53 1009.68 1009.77 1009.77 1009.70 1009.56 1009.41 1009.27 1009.22 1009.27 1009.44 1009.73 1010.13 1010.59 1011.08 1011.59 1012.09 1012.58
1003.00 1003.55 1004.02 1004.41 1004.70 1004.93 1005.14 1005.38 1005.70 1006.13 1006.66 1007.26 1007.90 1008.49 1009.00 1009.36 1009.57 1009.64 1009.59 1009.49 1009.38 1009.32 1009.33 1009.41 1009.54 1009.68 1009.78 1009.80 1009.73 1009.56 1009.32 1009.05 1008.81 1008.65 1008.61 1008.71 1008.94 1009.28 1009.72 1010.20 1010.71 1011.23 1011.75
1002.84 1003.40 1003.89 1004.27 1004.57 1004.79 1004.98 1005.20 1005.48 1005.87 1006.36 1006.92 1007.52 1008.10 1008.61 1008.99 1009.24 1009.36 1009.39 1009.36 1009.33 1009.34 1009.41 1009.53 1009.67 1009.80 1009.87 1009.84 1009.70 1009.44 1009.11 1008.75 1008.42 1008.16 1008.03 1008.05 1008.21 1008.50 1008.89 1009.36 1009.86 1010.39 1010.94
1002.61 1003.20 1003.71 1004.13 1004.44 1004.68 1004.87 1005.08 1005.34 1005.69 1006.12 1006.63 1007.18 1007.71 1008.19 1008.57 1008.84 1009.00 1009.08 1009.13 1009.18 1009.25 1009.38 1009.53 1009.70 1009.83 1009.88 1009.82 1009.63 1009.32 1008.93 1008.50 1008.09 1007.76 1007.55 1007.49 1007.58 1007.82 1008.16 1008.60 1009.09 1009.62 1010.18
1002.29 1002.91 1003.46 1003.91 1004.26 1004.54 1004.77 1004.99 1005.24 1005.56 1005.94 1006.39 1006.87 1007.35 1007.77 1008.13 1008.40 1008.58 1008.71 1008.82 1008.92 1009.06 1009.24 1009.43 1009.62 1009.75 1009.79 1009.72 1009.51 1009.17 1008.75 1008.28 1007.82 1007.44 1007.18 1007.05 1007.08 1007.26 1007.56 1007.96 1008.43 1008.95 1009.52
1001.86 1002.50 1003.09 1003.59 1004.00 1004.33 1004.61 1004.86 1005.13 1005.44 1005.80 1006.19 1006.61 1007.02 1007.40 1007.72 1007.98 1008.18 1008.34 1008.48 1008.64 1008.82 1009.03 1009.24 1009.44 1009.58 1009.63 1009.55 1009.34 1009.00 1008.57 1008.10 1007.63 1007.22 1006.92 1006.75 1006.73 1006.85 1007.10 1007.46 1007.90 1008.41 1008.97
1001.37 1002.02 1002.62 1003.16 1003.63 1004.03 1004.38 1004.70 1005.01 1005.33 1005.68 1006.05 1006.42 1006.78 1007.12 1007.41 1007.65 1007.85 1008.03 1008.20 1008.38 1008.59 1008.81 1009.04 1009.24 1009.37 1009.42 1009.35 1009.15 1008.83 1008.42 1007.97 1007.51 1007.11 1006.79 1006.60 1006.54 1006.62 1006.82 1007.13 1007.54 1008.02 1008.56
1000.92 1001.54 1002.14 1002.70 1003.22 1003.68 1004.11 1004.50 1004.87 1005.24 1005.61 1005.97 1006.33 1006.67 1006.98 1007.25 1007.48 1007.69 1007.87 1008.05 1008.24 1008.45 1008.67 1008.88 1009.06 1009.19 1009.23 1009.16 1008.98 1008.70 1008.33 1007.91 1007.49 1007.11 1006.81 1006.60 1006.52 1006.56 1006.72 1006.98 1007.34 1007.78 1008.28
1000.61 1001.17 1001.73 1002.29 1002.83 1003.36 1003.85 1004.32 1004.77 1005.20 1005.61 1005.99 1006.36 1006.70 1007.00 1007.27 1007.51 1007.71 1007.90 1008.08 1008.26 1008.45 1008.64 1008.82 1008.98 1009.08 1009.10 1009.04 1008.88 1008.63 1008.31 1007.95 1007.58 1007.24 1006.96 1006.76 1006.66 1006.67 1006.79 1007.01 1007.32 1007.70 1008.14
1000.53 1000.99 1001.49 1002.02 1002.57 1003.14 1003.69 1004.24 1004.76 1005.25 1005.71 1006.14 1006.53 1006.89 1007.20 1007.48 1007.72 1007.93 1008.12 1008.29 1008.46 1008.61 1008.76 1008.90 1009.00 1009.06 1009.07 1009.00 1008.86 1008.65 1008.39 1008.09 1007.78 1007.48 1007.23 1007.05 1006.95 1006.94 1007.02 1007.19 1007.45 1007.77 1008.15
1000.71 1001.06 1001.49 1001.98 1002.52 1003.10 1003.70 1004.30 1004.88 1005.43 1005.94 1006.41 1006.84 1007.22 1007.55 1007.85 1008.10 1008.32 1008.50 1008.66 1008.79 1008.91 1009.01 1009.08 1009.13 1009.15 1009.13 1009.05 1008.93 1008.76 1008.54 1008.30 1008.05 1007.82 1007.61 1007.45 1007.35 1007.33 1007.38 1007.51 1007.71 1007.97 1008.28
1001.16 1001.41 1001.76 1002.19 1002.71 1003.29 1003.91 1004.54 1005.16 1005.75 1006.30 1006.80 1007.25 1007.65 1008.01 1008.31 1008.58 1008.79 1008.97 1009.10 1009.21 1009.28 1009.32 1009.34 1009.34 1009.30 1009.25 1009.17 1009.05 1008.91 1008.75 1008.57 1008.38 1008.20 1008.03 1007.90 1007.82 1007.79 1007.81 1007.90 1008.05 1008.25 1008.49
1001.80 1001.98 1002.27 1002.67 1003.16 1003.73 1004.34 1004.98 1005.60 1006.21 1006.76 1007.27 1007.73 1008.14 1008.50 1008.81 1009.08 1009.29 1009.45 1009.56 1009.63 1009.66 1009.65 1009.61 1009.55 1009.48 1009.40 1009.30 1009.20 1009.09 1008.97 1008.84 1008.71 1008.58 1008.46 1008.36 1008.28 1008.25 1008.26 1008.32 1008.43 1008.57 1008.76
1002.56 1002.72 1002.98 1003.35 1003.83 1004.37 1004.97 1005.58 1006.19 1006.77 1007.31 1007.80 1008.24 1008.64 1008.99 1009.29 1009.53 1009.73 1009.88 1009.97 1010.00 1009.99 1009.93 1009.85 1009.75 1009.64 1009.53 1009.43 1009.34 1009.25 1009.16 1009.08 1009.00 1008.91 1008.82 1008.75 1008.68 1008.65 1008.65 1008.68 1008.75 1008.86 1009.00
1003.37 1003.54 1003.82 1004.19 1004.65 1005.18 1005.74 1006.32 1006.88 1007.41 1007.90 1008.34 1008.74 1009.10 1009.41 1009.68 1009.91 1010.09 1010.21 1010.27 1010.28 1010.23 1010.14 1010.02 1009.89 1009.75 1009.63 1009.52 1009.43 1009.36 1009.31 1009.25 1009.20 1009.15 1009.09 1009.03 1008.97 1008.94 1008.92 1008.93 1008.98 1009.05 1009.15
1004.16 1004.39 1004.71 1005.11 1005.57 1006.07 1006.60 1007.12 1007.61 1008.07 1008.49 1008.86 1009.20 1009.50 1009.77 1010.00 1010.19 1010.34 1010.44 1010.48 1010.46 1010.39 1010.28 1010.14 1009.98 1009.83 1009.69 1009.58 1009.49 1009.43 1009.39 1009.36 1009.33 1009.29 1009.24 1009.18 1009.13 1009.08 1009.04 1009.03 1009.05 1009.10 1009.17
1004.91 1005.24 1005.62 1006.06 1006.52 1007.00 1007.48 1007.93 1008.35 1008.73 1009.06 1009.35 1009.61 1009.84 1010.05 1010.24 1010.40 1010.51 1010.59 1010.61 1010.58 1010.49 1010.36 1010.21 1010.04 1009.88 1009.74 1009.62 1009.53 1009.47 1009.44 1009.41 1009.38 1009.34 1009.29 1009.22 1009.15 1009.08 1009.02 1008.99 1008.97 1008.99 1009.03
Thickness
5729 5728 5727 5725 5723 5721 5719 5717 5716 5715 5715 5716 5716 5717 5717 5717 5717 5717 5716 5716 5714 5713 5713 5712 5710 5709 5708 5707 5706 5704 5703 5703 5702 5701 5700 5699 5699 5698 5697 5696 5695 5695 5695
5726 5724 5722 5721 5719 5717 5715 5713 5712 5711 5711 5711 5711 5713 5714 5714 5714 5714 5713 5712 5711 5711 5710 5709 5708 5707 5706 5705 5704 5702 5701 5700 5700 5699 5698 5698 5697 5696 5695 5694 5694 5694 5693
5723 5721 5718 5716 5715 5713 5711 5709 5708 5707 5706 5706 5706 5708 5709 5709 5710 5710 5709 5709 5708 5707 5707 5706 5705 5704 5704 5703 5702 5700 5699 5698 5698 5697 5696 5696 5695 5694 5694 5693 5692 5692 5692
5719 5716 5713 5712 5710 5708 5706 5704 5702 5701 5700 5700 5700 5701 5703 5704 5705 5704 5705 5705 5705 5705 5704 5703 5702 5701 5701 5700 5699 5698 5697 5696 5695 5694 5694 5694 5693 5693 5692 5691 5691 5691 5690
5715 5711 5708 5706 5705 5703 5701 5700 5698 5695 5693 5693 5693 5695 5697 5699 5700 5700 5700 5700 5701 5700 5700 5699 5698 5698 5697 5697 5696 5695 5695 5694 5693 5692 5692 5691 5691 5690 5690 5690 5689 5689 5689
5710 5706 5703 5701 5700 5697 5695 5694 5692 5691 5688 5687 5688 5690 5691 5693 5695 5695 5695 5695 5696 5696 5695 5696 5694 5694 5694 5693 5693 5692 5692 5692 5691 5690 5689 5689 5689 5688 5688 5688 5687 5687 5687
5705 5701 5698 5695 5693 5691 5689 5688 5686 5684 5682 5682 5680 5680 5684 5688 5689 5689 5690 5690 5690 5691 5691 5691 5691 5691 5690 5690 5689 5689 5688 5688 5688 5688 5687 5687 5686 5686 5686 5686 5686 5685 5685
5699 5697 5692 5690 5688 5686 5683 5682 5680 5678 5677 5676 5673 5669 5669 5673 5678 5684 5683 5683 5684 5686 5686 5687 5686 5687 5687 5686 5686 5685 5684 5684 5684 5684 5684 5684 5684 5684 5684 5684 5684 5684 5683
5693 5690 5687 5685 5682 5680 5678 5677 5676 5672 5669 5670 5670 5665 5660 5659 5665 5672 5675 5677 5677 5678 5680 5681 5681 5682 5682 5682 5681 5680 5680 5680 5680 5680 5680 5680 5681 5681 5682 5682 5682 5682 5682
5687 5684 5682 5680 5677 5676 5674 5673 5671 5668 5665 5662 5663 5663 5661 5660 5655 5657 5663 5668 5670 5671 5673 5674 5676 5677 5677 5677 5677 5676 5676 5675 5675 5675 5676 5677 5677 5678 5679 5680 5680 5680 5680
5681 5679 5677 5674 5673 5671 5669 5668 5666 5664 5661 5659 5656 5655 5654 5654 5653 5649 5650 5655 5659 5664 5667 5669 5670 5671 5671 5671 5671 5671 5671 5670 5670 5670 5671 5672 5673 5674 5676 5677 5678 5678 5678
5676 5674 5672 5670 5668 5666 5664 5664 5662 5659 5657 5655 5653 5651 5649 5647 5646 5645 5644 5647 5649 5655 5660 5664 5665 5666 5666 5666 5666 5666 5665 5665 5665 5665 5666 5668 5669 5670 5672 5673 5674 5675 5675
5670 5668 5667 5664 5663 5661 5661 5660 5658 5655 5653 5650 5648 5647 5646 5644 5644 5643 5641 5641 5643 5648 5652 5657 5660 5661 5662 5661 5660 5660 5660 5660 5660 5660 5661 5662 5664 5665 5667 5669 5670 5670 5671
5666 5664 5663 5661 5659 5657 5656 5655 5653 5650 5648 5646 5644 5643 5641 5641 5641 5640 5638 5636 5636 5639 5644 5649 5654 5655 5656 5655 5655 5655 5655 5655 5655 5655 5656 5657 5659 5660 5662 5663 5664 5665 5665
5662 5661 5659 5657 5655 5654 5652 5650 5648 5645 5643 5641 5640 5639 5638 5637 5637 5637 5636 5635 5631 5631 5635 5641 5644 5648 5649 5648 5648 5649 5650 5650 5650 5650 5650 5651 5653 5655 5656 5657 5658 5659 5659
5657 5655 5654 5653 5651 5650 5648 5646 5644 5642 5639 5637 5636 5634 5633 5633 5632 5632 5632 5632 5631 5629 5629 5635 5638 5641 5642 5642 5642 5643 5644 5645 5644 5645 5645 5646 5648 5649 5649 5650 5651 5652 5653
5652 5650 5649 5648 5647 5646 5645 5642 5640 5638 5636 5633 5632 5630 5629 5628 5627 5627 5628 5628 5628 5627 5626 5631 5633 5634 5635 5634 5635 5636 5638 5639 5639 5639 5640 5641 5641 5642 5643 5643 5644 5645 5646
5649 5647 5646 5645 5644 5643 5641 5639 5637 5635 5632 5629 5627 5626 5625 5624 5623 5623 5623 5623 5623 5623 5622 5623 5626 5627 5628 5628 5629 5629 5631 5633 5633 5634 5635 5635 5636 5636 5637 5637 5638 5638 5639
5644 5643 5643 5641 5640 5639 5637 5637 5635 5632 5629 5626 5625 5623 5622 5621 5619 5618 5617 5618 5618 5620 5619 5618 5619 5620 5621 5622 5622 5622 5624 5625 5627 5628 5629 5630 5630 5630 5631 5631 5631 5632 5632
5640 5639 5639 5637 5636 5635 5634 5632 5631 5629 5626 5624 5622 5620 5619 5617 5615 5613 5612 5612 5612 5613 5613 5613 5612 5613 5613 5615 5614 5614 5615 5617 5619 5623 5623 5624 5624 5624 5624 5625 5625 5626 5626
5637 5636 5634 5633 5632 5630 5629 5627 5626 5625 5623 5621 5619 5617 5615 5614 5612 5609 5608 5607 5606 5606 5606 5606 5606 5606 5606 5606 5606 5608 5608 5610 5612 5615 5615 5617 5617 5618 5617 5618 5619 5619 5620
5632 5631 5630 5628 5626 5625 5623 5622 5621 5619 5618 5617 5615 5614 5612 5611 5608 5606 5604 5603 5602 5601 5600 5600 5600 5599 5599 5600 5601 5601 5601 5602 5604 5608 5608 5609 5611 5611 5613 5613 5615 5615 5615
5626 5626 5625 5623 5620 5619 5618 5617 5617 5615 5615 5613 5612 5610 5609 5608 5606 5604 5601 5600 5598 5597 5595 5594 5594 5593 5594 5595 5595 5595 5595 5596 5598 5601 5601 5602 5604 5605 5608 5609 5610 5610 5610
5622 5622 5621 5619 5617 5616 5614 5614 5613 5612 5610 5610 5609 5607 5605 5603 5602 5599 5598 5596 5594 5593 5593 5591 5591 5591 5591 5591 5590 5590 5590 5591 5594 5596 5597 5595 5598 5600 5603 5603 5604 5604 5604
5619 5619 5618 5616 5614 5613 5611 5610 5609 5609 5608 5607 5607 5604 5602 5599 5596 5594 5593 5591 5590 5589 5590 5589 5588 5588 5587 5586 5586 5584 5584 5585 5586 5590 5592 5591 5593 5595 5596 5597 5598 5598 5599
5618 5617 5615 5614 5612 5611 5608 5607 5605 5605 5604 5603 5602 5600 5597 5595 5592 5589 5588 5586 5585 5585 5585 5585 5584 5584 5584 5584 5583 5581 5581 5581 5582 5583 5587 5586 5587 5587 5588 5591 5592 5592 5592